Location: Baia Mare
(47.6567°N, 23.5850°E)
Time: 22:30:47
(UTC+03:00)

ISS - Pass Details

Date: 08 June 2018
Orbit: 403 x 408 km, 51.6° (Epoch: 26 September)

Event Time Altitude Azimuth Distance (km) Brightness Sun altitude
Rises 22:07:39 0° 283° (WNW) 2,330 1.1 -6.7°
Maximum altitude 22:12:12 13° 225° (SW) 1,271 -1.3 -7.3°
Drops below altitude 10° 22:13:51 10° 194° (SSW) 1,453 -1.3 -7.5°
Enters shadow 22:15:21 - 176° (S) 1,850 -0.9 -7.6°
